Regional Weather Roundup
Issued by NWS

Home | Current Version | Previous Version | Text Only | Print | Product List | Glossary On
Versions: 1 2 3 4 5 6 7 8 9 10 11 12 13 14 15 16 17 18 19 20 21 22 23 24 25 26 27
000
ASUS45 KCYS 242310
RWRWY

WYOMING REGIONAL WEATHER ROUNDUP
NATIONAL WEATHER SERVICE CHEYENNE WY
500 PM MDT THU APR 24 2014

NOTE:  "FAIR" INDICATES FEW OR NO CLOUDS BELOW 12,000 FEET
WITH NO SIGNIFICANT WEATHER AND/OR OBSTRUCTIONS TO VISIBILITY.

WYZ001-250000-
YELLOWSTONE NATIONAL PARK

CITY           SKY/WX    TMP DP  RH WIND       PRES   REMARKS
LK YELLOWSTONE   N/A     35  27  72 VRB5      29.95S WCI  31
W YELLOWSTONE  NOT AVBL

$$
WYZ002>013-054>058-071-098>099-250000-
NORTHERN WYOMING

CITY           SKY/WX    TMP DP  RH WIND       PRES   REMARKS
JACKSON        NOT AVBL
CODY           MOSUNNY   55  25  30 W9G28     29.78F
GREYBULL       CLOUDY    62  16  16 VRB6      29.75F
WORLAND        CLOUDY    63  21  20 NW15      29.74R
SHERIDAN         N/A     50  18  27 W24G35      N/A
BUFFALO        CLOUDY    58  21  24 N7        29.78S
GILLETTE       PTSUNNY   58  24  27 NE6       29.77R
HULETT         MOCLDY    55  21  26 NW7       29.79
NEWCASTLE      FAIR      61  14  16 NW15G22   29.77

$$
WYZ014>020-022>026-101>103-250000-
CENTRAL WYOMING

CITY           SKY/WX    TMP DP  RH WIND       PRES   REMARKS
BIG PINEY      PTSUNNY   47  20  34 W10G23    29.99S
PINEDALE       MOCLDY    45  23  42 NW13G24   29.99S
DUBOIS         MOCLDY    43  21  42 NW15G25   29.92R
LANDER         MOSUNNY   59  25  27 SW12G25   29.81S
RIVERTON       MOSUNNY   60  19  20 NW16G26   29.81R
CASPER         CLOUDY    60  21  22 W25G36    29.80F
DOUGLAS        MOSUNNY   62  22  21 W28G35    29.80F

$$
WYZ021-027>030-104>119-250000-
SOUTHERN WYOMING

CITY           SKY/WX    TMP DP  RH WIND       PRES   REMARKS
EVANSTON       PTSUNNY   53  21  28 SW26G36   30.01S
KEMMERER       MOCLDY    50  19  29 W21G33    30.02R
FORT BRIDGER   FAIR      53  20  27 W29G38    30.01S
ROCK SPRINGS   NOT AVBL
DIXON          FAIR      58  18  21 W17G24    29.99F
RAWLINS        CLOUDY    54  14  20 SW30G37   29.91F
SARATOGA       FAIR      54  18  24 SW17G29   29.96F
LARAMIE        PTSUNNY   50  15  24 SW26      29.92R
CHEYENNE       PTSUNNY   58  17  20 W20G25    29.88S
TORRINGTON     PTSUNNY   64  21  19 NW8       29.80F
PINE BLUFFS    FAIR      63  19  19 S9        29.86S

$$



USA.gov is the U.S. government's official web portal to all federal, state and local government web resources and services.